BEIDOU-3 M5 1 43207U 18018A 21110.03534123 .00000072 00000-0 00000-0 0 9999 2 43207 55.2941 126.0238 0007773 320.4267 39.5623 1.86231846 21655 BEIDOU-3 M6 1 43208U 18018B 21109.56507609 .00000066 00000-0 00000-0 0 9998 2 43208 55.2939 126.0438 0010051 296.8141 63.1278 1.86231682 21641 CZ-3B R/B 1 43209U 18018C 21110.31752975 .04850210 65910-5 39278-3 0 9998 2 43209 54.7332 89.8500 1298669 107.3901 267.2985 13.43819544 74097 YZ-1 R/B 1 43210U 18018D 21108.98261460 .00000057 00000-0 00000-0 0 9998 2 43210 55.1053 129.0082 0031268 83.7176 276.6875 1.79055426 20805